Back to catalog

DELTA 1 DEB

AliveLEO
NORAD 3811·DEBRIS·🇺🇸 United States

Launched Dec 15, 1968 from Vandenberg Space Force Base

Loading…

Next Passes (next 24 hours)

TLE

FreshSource: Space-Track

Epoch: Sep 14, 2026, 07:24 UTC

1 03811U 68114C   26257.30841560 -.00000038  00000-0  52892-4 0  9994
2 03811 101.9086 201.8588 0137748 345.3780 170.8515 12.76397524689592

Track DELTA 1 DEB in real time with AllMySat

Download on the App Store